Regional Weather Roundup
Issued by NWS Sterling, VA

Home | Current Version | Previous Version | Text Only | Print | Product List | Glossary On
Versions: 1 2 3 4 5 6 7 8 9 10 11 12 13 14 15 16 17 18 19 20 21 22 23 24 25 26 27 28
000
ASUS41 KLWX 230111
RWRLWX

REGIONAL WEATHER ROUNDUP
NATIONAL WEATHER SERVICE BALTIMORE MD/WASHINGTON DC
900 PM EDT SAT JUL 22 2017

Note: "FAIR" indicates few or no clouds below 12,000 feet
with no significant weather and/or obstructions to visibility.
 TC=TEMPERATURE CELSIUS

 * =Non NWS site. Station does not report precipitation (e.g. rain,
    snow, etc.), thunder, or fog.

DCZ001-MDZ009-015-VAZ040>042-051-053>054-230200-
WASHINGTON METRO

CITY           SKY/WX    TMP DP  RH WIND       PRES   REMARKS
WASHINGTON NAT LGT RAIN  76  72  87 SW7       29.81R
DULLES         CLOUDY    73  71  93 S5        29.81R
QUANTICO       CLOUDY    79  73  82 CALM      29.80S
COLLEGE PARK*  CLOUDY    74  72  93 S3        29.79R
LEESBURG*      CLOUDY    73  73 100 W6        29.83R
MANASSAS*      CLOUDY    73  72  94 VRB3      29.82R
GAITHERSBURG*  CLOUDY    72  71  97 W5        29.83R

$$

MDZ006>007-011-014-230200-
BALTIMORE METRO

CITY           SKY/WX    TMP DP  RH WIND       PRES   REMARKS
BWI AIRPORT    CLOUDY    73  73 100 W6        29.79R
MD SCIENCE CTR   N/A     77  73  87 MISG      29.79R
MARTIN STATE   CLOUDY    77  75  94 W3        29.79R
ANNAPOLIS      CLOUDY    72  72 100 W3        29.78R
FORT MEADE*    CLOUDY    72  70  94 CALM      29.82R

$$

MDZ012-015-019>023-230200-
MARYLAND EASTERN SHORE

CITY           SKY/WX    TMP DP  RH WIND       PRES   REMARKS
OCEAN CITY     TSTM      77  73  87 SW13      29.81R FOG
SALISBURY      MOCLDY    75  73  94 SW6       29.82S
BAY BRIDGE AP* CLOUDY    77  73  88 SW3       29.78S
CAMBRIDGE*     PTCLDY    73  72  94 CALM      29.79F
EASTON*        DRIZZLE   77  73  88 SW3       29.82S

$$

MDZ017>025-230200-
SOUTHERN MARYLAND

CITY           SKY/WX    TMP DP  RH WIND       PRES   REMARKS
PATUXENT RIVER PTCLDY    73  72  96 S7        29.80F THUNDER
ST INIGOES     TSTM      74  73  97 E7        29.80F
LEONARDTOWN*   CLOUDY    72  70  94 CALM      29.82F

$$

MDZ003>005-230200-
NORTH CENTRAL MARYLAND

CITY           SKY/WX    TMP DP  RH WIND       PRES   REMARKS
FREDERICK*     NOT AVBL
HAGERSTOWN APT RAIN      75  72  90 SW7       29.83R FOG
WESTMINSTER*   CLOUDY    73  72  94 W7        29.82R

$$

MDZ501>502-230200-
WESTERN MARYLAND

CITY           SKY/WX    TMP DP  RH WIND       PRES   REMARKS
OAKLAND*       CLOUDY    64  64 100 SW10      29.90F
CUMBERLAND*    CLOUDY    72  72 100 SE9       29.86F

$$

VAZ025>031-230200-
SHENANDOAH VALLEY

CITY           SKY/WX    TMP DP  RH WIND       PRES   REMARKS
WINCHESTER*    CLOUDY    70  70 100 CALM      29.84R
FRONT ROYAL*   CLOUDY   N/A N/A N/A S3        29.82S
LURAY*         MOCLDY    75  73  94 CALM      29.85R
NEW MARKET*    CLOUDY    73  70  88 CALM      29.83F
STAUNTON*      MOCLDY    79  71  78 CALM      29.88S
WAYNESBORO*    PTCLDY    80  73  81 NW6       29.88S

$$

WVZ021-048>050-054>055-230200-
EASTERN WEST VIRGINIA PANHANDLE

CITY           SKY/WX    TMP DP  RH WIND       PRES   REMARKS
MARTINSBURG    LGT RAIN  74  70  87 CALM      29.81R FOG
PETERSBURG*    TSTM      73  73  98 CALM      29.87F

$$

VAZ036>039-050-230200-
CENTRAL FOOTHILLS

CITY           SKY/WX    TMP DP  RH WIND       PRES   REMARKS
CHARLOTTESVILL MOCLDY    78  74  87 CALM      29.83R THUNDER
CULPEPER*      CLOUDY    76  75  98 CALM      29.83S
ORANGE*        CLOUDY    73  73 100 CALM      29.83R
GORDONSVILLE*  PTCLDY    75  75 100 CALM      29.82R
WARRENTON*     CLOUDY    76  73  90 CALM      29.82R

$$

VAZ055>057-230200-
NORTH AND CENTRAL PIEDMONT

CITY           SKY/WX    TMP DP  RH WIND       PRES   REMARKS
FREDERICKSBRG*   N/A     75  75 100 MISG      29.80F
STAFFORD*      CLOUDY    74  74 100 CALM      29.85S

$$

NCZ024-NYZ072-PAZ021-071-VAZ022-071-230200-
OTHER REGIONAL OBSERVATIONS

CITY           SKY/WX    TMP DP  RH WIND       PRES   REMARKS
NEW YORK CITY  CLOUDY    80  66  62 VRB5      29.80S
PHILADELPHIA   CLOUDY    80  72  76 CALM      29.77R
PITTSBURGH     CLOUDY    74  73  97 S3        29.82R
ROANOKE        PTCLDY    88  72  58 W8        29.88R HX  94
RICHMOND       MOCLDY    90  75  61 S12       29.80R HX 100
RALEIGH        PTCLDY    89  73  59 SW14      29.88R HX  97

$$

ANZ530>537-230200-
MARINE OBSERVATIONS

STATION/POSITION TIME  TEMP    WIND        PRES
                       AIR SEA DIR/SP/G
                 (UTC) (F)     (DEG/KT/KT) (MB)
THOMAS PT LIGHT  0100   77 85  250/ 10/ 11   N/A
BALT KEY BRIDGE  0048   75     250/  9/ 12 1008.2R
COVE POINT       0048   75     210/  8/  9 1009.4F
LEWISETTA        0036   79 86  130/  8/  9 1008.9F
SOLOMONS ISLAND  0048   76 84  220/  7/  9   N/A
PINEY POINT      0042           60/  6/  7   N/A

$$





USA.gov is the U.S. government's official web portal to all federal, state and local government web resources and services.